Weather History for Branson, MO

Change the Weather History Date:

Sunday, December 16, 2012

  Actual Average (KHRO) Record (KHRO)
Temperature  
Mean Temperature 53 °F 38 °F  
Max Temperature 62 °F 47 °F 78 °F (1924)
Min Temperature 44 °F 28 °F -4 °F (1989)
Degree Days  
Heating Degree Days 12 27  
Month to date heating degree days 406  
Since 1 July heating degree days 1170  
Cooling Degree Days 0 0  
Month to date cooling degree days 0  
Year to date cooling degree days 1416  
Growing Degree Days 3 (Base 50)    
Moisture  
Dew Point 34 °F    
Average Humidity 54    
Maximum Humidity 76    
Minimum Humidity 32    
Precipitation  
Precipitation 0.00 in 0.09 in 2.81 in (2001)
Month to date precipitation 1.78  
Year to date precipitation 42.72  
Snow  
Snow 0.00 in 0.00 in 2.00 in (1911)
Month to date snowfall 0.0  
Since 1 July snowfall 0.5  
Snow Depth -    
Sea Level Pressure  
Sea Level Pressure 29.72 in    
Wind  
Wind Speed 4 mph (SW)    
Max Wind Speed 9 mph    
Max Gust Speed -    
Visibility 10 miles    
Events      
T = Trace of Precipitation, MM = Missing Value Source: NWS Daily Summary

Daily Weather History Graph

Daily Weather History Graph

Search for Another Location

Airport:

Trip Planner

Search our weather history database for the weather conditions in past years. The results will help you decide how hot, cold, wet, or windy it might be!

Date:

Astronomy

Dec. 16, 2012 Rise Set
Actual Time 7:18 AM CST 4:58 PM CST
Civil Twilight 6:49 AM CST 5:27 PM CST
Nautical Twilight 6:17 AM CST 6:00 PM CST
Astronomical Twilight 5:45 AM CST 6:31 PM CST
Moon 9:57 AM CST (12/16) 9:08 PM CST (12/16)
Length of Visible Light 10h 38m
Length of Day
9h 40m
Waxing Crescent, 16% of the Moon is Illuminated
Dec 16
Waxing Crescent
Dec 19
First Quarter
Dec 28
Full
Jan 4
Last Quarter
Jan 11
New

Hourly Weather History & Observations

Time (CST) Temp. Windchill Dew Point Humidity Pressure Visibility Wind Dir Wind Speed Gust Speed Precip Events Conditions
12:15 AM 50.0 °F - 32.0 °F 50% 29.76 in 10.0 mi SW 6.9 mph - N/A   Clear
12:35 AM 50.0 °F - 32.0 °F 50% 29.76 in 10.0 mi SW 4.6 mph - N/A   Clear
12:55 AM 50.0 °F - 32.0 °F 50% 29.76 in 10.0 mi SW 4.6 mph - N/A   Clear
1:15 AM 50.0 °F - 32.0 °F 50% 29.75 in 10.0 mi Calm Calm - N/A   Clear
1:35 AM 50.0 °F - 32.0 °F 50% 29.75 in 10.0 mi Calm Calm - N/A   Clear
2:15 AM 48.2 °F - 32.0 °F 54% 29.75 in 10.0 mi SSW 4.6 mph - N/A   Clear
2:35 AM 48.2 °F - 32.0 °F 54% 29.75 in 10.0 mi SSW 4.6 mph - N/A   Clear
2:55 AM 50.0 °F - 32.0 °F 50% 29.75 in 10.0 mi SSW 4.6 mph - N/A   Clear
3:15 AM 50.0 °F - 32.0 °F 50% 29.74 in 10.0 mi SSW 5.8 mph - N/A   Clear
3:35 AM 50.0 °F - 32.0 °F 50% 29.75 in 10.0 mi SSW 4.6 mph - N/A   Clear
3:55 AM 50.0 °F - 32.0 °F 50% 29.74 in 10.0 mi SSW 5.8 mph - N/A   Clear
4:15 AM 50.0 °F - 32.0 °F 50% 29.74 in 10.0 mi SSW 4.6 mph - N/A   Clear
4:35 AM 50.0 °F - 32.0 °F 50% 29.75 in 10.0 mi SW 5.8 mph - N/A   Clear
4:55 AM 50.0 °F - 32.0 °F 50% 29.74 in 10.0 mi SW 4.6 mph - N/A   Clear
5:15 AM 50.0 °F - 32.0 °F 50% 29.74 in 10.0 mi SSW 3.5 mph - N/A   Clear
5:35 AM 50.0 °F - 32.0 °F 50% 29.74 in 10.0 mi Calm Calm - N/A   Clear
7:45 AM 51.8 °F - 32.0 °F 47% 29.74 in 10.0 mi SW 5.8 mph - N/A   Mostly Cloudy
8:45 AM 51.8 °F - 32.0 °F 47% 29.74 in 10.0 mi SSW 4.6 mph - N/A   Mostly Cloudy
9:45 AM 53.6 °F - 32.0 °F 44% 29.74 in 10.0 mi SW 6.9 mph - N/A   Mostly Cloudy
10:58 AM 53.6 °F - 32.0 °F 44% 29.71 in 10.0 mi West 6.9 mph - N/A   Scattered Clouds
11:50 AM 53.6 °F - 32.0 °F 44% 29.68 in 10.0 mi WSW 5.8 mph - N/A   Mostly Cloudy
12:45 PM 57.2 °F - 32.0 °F 38% 29.66 in 10.0 mi South 9.2 mph - N/A   Scattered Clouds
1:45 PM 59.0 °F - 32.0 °F 36% 29.64 in 10.0 mi South 4.6 mph - N/A   Scattered Clouds
2:50 PM 62.6 °F - 32.0 °F 32% 29.63 in 10.0 mi SW 5.8 mph - N/A   Scattered Clouds
3:50 PM 62.6 °F - 32.0 °F 32% 29.64 in 10.0 mi South 4.6 mph - N/A   Partly Cloudy
4:50 PM 55.4 °F - 35.6 °F 47% 29.65 in 10.0 mi ESE 4.6 mph - N/A   Partly Cloudy
5:55 PM 51.8 °F - 35.6 °F 54% 29.67 in 10.0 mi SSE 5.8 mph - N/A   Partly Cloudy
6:55 PM 50.0 °F - 35.6 °F 58% 29.68 in 10.0 mi Calm Calm - N/A   Partly Cloudy
7:55 PM 44.6 °F - 37.4 °F 76% 29.70 in 10.0 mi Calm Calm - N/A   Partly Cloudy
8:15 PM 48.2 °F - 35.6 °F 62% 29.71 in 10.0 mi SW 3.5 mph - N/A   Clear
8:35 PM 50.0 °F - 35.6 °F 58% 29.71 in 10.0 mi Calm Calm - N/A   Clear
8:50 PM 48.2 °F - 35.6 °F 62% 29.70 in 10.0 mi Calm Calm - N/A   Partly Cloudy
8:55 PM 48.2 °F - 35.6 °F 62% 29.70 in 10.0 mi West 3.5 mph - N/A   Clear
9:15 PM 48.2 °F - 35.6 °F 62% 29.71 in 10.0 mi Calm Calm - N/A   Clear
9:35 PM 48.2 °F - 35.6 °F 62% 29.70 in 10.0 mi NW 4.6 mph - N/A   Clear
9:55 PM 46.4 °F - 37.4 °F 71% 29.70 in 10.0 mi Calm Calm - N/A   Clear
10:15 PM 48.2 °F - 35.6 °F 62% 29.71 in 10.0 mi Calm Calm - N/A   Clear
10:35 PM 48.2 °F - 35.6 °F 62% 29.71 in 10.0 mi WNW 4.6 mph - N/A   Mostly Cloudy
10:55 PM 48.2 °F - 35.6 °F 62% 29.71 in 10.0 mi NW 5.8 mph - N/A   Scattered Clouds
11:15 PM 46.4 °F 43.5 °F 37.4 °F 71% 29.70 in 10.0 mi NNW 5.8 mph - N/A   Clear
11:35 PM 44.6 °F 41.4 °F 37.4 °F 76% 29.71 in 10.0 mi NW 5.8 mph - N/A   Clear
11:55 PM 44.6 °F 42.2 °F 37.4 °F 76% 29.71 in 10.0 mi NW 4.6 mph - N/A   Partly Cloudy